Printer-friendly version

IAU Minor Planet Center

Minor Planet Center

MPEC 2004-G04 : 2003 GS

The following Minor Planet Electronic Circular may be linked-to from your own Web pages, but must not otherwise be redistributed electronically.


Read MPEC 2004-G03 Read MPEC 2004-G05


M.P.E.C. 2004-G04                                Issued 2004 Apr. 1, 21:40 UT

     The Minor Planet Electronic Circulars contain information on unusual
         minor planets and routine data on comets.  They are published
   on behalf of Commission 20 of the International Astronomical Union by the
          Minor Planet Center, Smithsonian Astrophysical Observatory,
                          Cambridge, MA 02138, U.S.A.

         Supported in part by the Steven and Michele Kirsch Foundation
             Prepared using the Tamkin Foundation Computer Network

                              MPC@CFA.HARVARD.EDU
          URL http://cfa-www.harvard.edu/iau/mpc.html  ISSN 1523-6714

                                    2003 GS

                           Revision to MPEC 2003-G25

Additional Observations:
     K03G00S HC2004 03 30.49570 19 42 29.87 -11 15 35.8          21.4 V EG004291
     K03G00S HC2004 03 30.50762 19 42 32.74 -11 15 17.5          20.9 V EG004291
     K03G00S  C2004 03 30.66564 19 43 12.25 -11 10 48.7          20.2 R EG004474
     K03G00S  C2004 03 30.66703 19 43 12.54 -11 10 47.2          19.4 R EG004474
     K03G00S  C2004 03 30.66841 19 43 12.94 -11 10 44.0          19.5 R EG004474
     K03G00S  C2004 03 30.67235 19 43 13.93 -11 10 37.4          19.5 R EG004474
     K03G00S  C2004 03 30.67524 19 43 14.63 -11 10 33.6          20.0 R EG004474

Observer details:
291 LPL/Spacewatch II.  Observer J. A. Larsen.  1.8-m f/2.7 reflector + CCD.
474 Mount John Observatory, Lake Tekapo.  Observer A. C. Gilmore.  Measurer
    P. M. Kilmartin.  1.0-m f/7.7 reflector + CCD.

First and last observations above in comparison with prediction:
Residuals in seconds of arc, reference and Delta-T
040330 291  0.0   1.1-    040330 474  0.9-  1.9-    MPO 50759   +0.0013 day

Orbital elements:
2003 GS                                                              PHA 0.007
Epoch 2004 July 14.0 TT = JDT 2453200.5                 MPC
M 348.25113              (2000.0)            P               Q
n   1.16785765     Peri.  181.80360     +0.95041249     -0.30540551
a   0.8930507      Node   196.35126     +0.28787577     +0.93535235
e   0.2186124      Incl.   12.03111     +0.11765896     +0.17844733
P   0.84           H   19.0           G   0.15           U   4
Residuals in seconds of arc
030404 699  0.1-  0.1+    030405 176  0.1+  0.2+    030421 E14  0.1+  0.2-
030404 699  0.4-  0.1+    030405 176  0.1+  0.3+    030421 E14  0.9-  0.7+
030404 699  0.2-  0.2-    030406 750  0.0   0.1-    030421 170  0.2-  0.4+
030404 699  0.6-  1.0+    030406 750  0.0   0.3+    030421 170  0.3-  0.5+
030404 699  0.0   0.2-    030406 750  0.1+  0.1+    030421 170  0.1+  0.4+
030404 699  0.1-  0.2-    030406 750  0.0   0.3+    030421 170  0.0   0.5+
030404 699  0.2-  0.4-    030406 151  0.5+  0.1+    030422 185  0.6-  0.2-
030404 699  0.3-  0.3-    030406 151  0.7+  0.2+    030422 185  0.5-  0.1-
030404 113  0.1-  0.7+    030406 151  0.1+  0.2+    030422 185  0.5-  0.1-
030404 113  0.3-  0.1+    030406 151  0.6+  0.1+    030422 185  0.4-  0.1-
030404 113  0.2+  0.3-    030406 151  0.1+  0.4+    030422 185  0.6-  0.0
030404 113  0.1-  0.2-    030406 170  0.3-  0.1+    030423 413  0.1-  0.2-
030404 198  0.3+  0.0     030406 151  0.3+  0.5+    030423 413  0.1-  0.1-
030404 198  0.2+  0.1-    030406 170  0.3-  0.1+    030423 413  0.1-  0.1-
030404 198  0.0   0.1-    030406 151  0.5+  0.1+    030423 246  0.1-  0.3+
030404 246  0.2-  0.3-    030406 151  0.1+  0.1-    030423 246  0.1-  0.1+
030404 246  0.0   0.5-    030406 151  0.3+  0.1-    030423 246  0.2+  0.0
030404 246  0.1-  0.3-    030406 170  0.3-  0.1+    030423 246  0.1+  0.2-
030404 198  0.1-  0.1-    030406 170  0.1-  0.2+    030423 246  0.1-  0.2-
030404 246  0.0   0.4-    030406 151  0.1-  0.6+    030423 246  0.2-  0.1-
030404 246  0.1+  0.1-    030406 938  0.5+  0.3-    030424 704  0.2+  1.0+
030404 246  0.2-  0.4-    030406 938  0.2-  0.4-    030424 704  0.1+  0.9+
030404 198  0.1+  0.5+    030406 938  0.2+  0.2+    030424 704  0.0   0.9+
030404 198  0.2-  0.2-    030406 938  0.4+  0.9+    030424 704  0.1+  1.0+
030404 198  0.2-  0.0     030406 938  0.6+  0.1-    030424 704  0.1+  1.2+
030404 198  0.1+  0.0     030406 938  0.4+  0.0     030424 113  0.1+  0.0
030404 198  0.4-  0.2-    030406 938  0.2-  0.3+    030424 113  0.4+  0.3+
030404 198  0.0   0.0     030406 938  0.2+  0.0     030424 113  0.1-  0.1-
030404 J87  0.5+  0.4-    030406 938  0.2+  0.5+    030424 113  0.2+  0.1+
030404 J87  1.1-  0.8-    030406 938  0.2+  0.1-    030424 113  0.3+  0.2+
030404 J87  0.7-  0.2+    030406 938  0.0   0.0     030424 118  1.0+  0.0
030404 J87  0.4-  0.1+    030406 938  0.3+  0.1+    030424 118  1.0+  0.6-
030404 198  0.0   0.0     030406 938  0.1+  0.5+    030424 118  0.2-  0.4+
030404 232 (1.5-  3.3-)   030406 938  0.2+  0.2-    030424 118  0.5-  0.7+
030404 232  0.2-  0.4-    030406 938  0.1+  0.4+    030428 926  0.2-  0.7-
030404 232 (4.5+  1.4+)   030406 938  0.3-  0.2+    030428 926  0.2-  0.4-
030404 938  0.2-  0.2-    030406 938  0.3+  0.1+    030428 926  0.6+  0.9+
030404 J95  0.0   0.2-    030406 938  0.1+  0.3+    030428 170  0.0   0.2-
030404 938  0.3+  0.1-    030406 938  0.5-  0.2-    030428 170  0.0   0.3-
030404 J95  0.1-  0.5-    030406 938  0.4-  0.0     030428 170  0.0   0.3-
030404 938  0.1-  0.5-    030406 938  0.1+  0.2+    030430 941  0.1-  0.3-
030404 938  0.2+  1.1-    030406 938  0.2+  0.0     030430 941  0.1-  0.3-
030404 938  0.2+  0.4-    030406 938  0.3+  0.3+    030430 941  0.1-  0.4-
030404 938  0.1-  0.3+    030406 J95  0.3-  0.0     030430 941  0.1-  0.4-
030404 938  0.0   0.2+    030406 J95  0.2-  0.1-    030430 176  0.2+  0.4-
030404 941  0.5-  0.3+    030406 J95  0.3-  0.2-    030430 176  0.3+  0.4-
030404 118  0.5+  0.3-    030407 670  0.6+  0.1-    030430 176  0.3+  0.3-
030404 941  0.3-  0.0     030407 670  0.2+  0.0     030430 176  0.2+  0.3-
030404 118  0.2+  0.1+    030407 474  0.4+  0.3+    030430 176  0.1+  0.4-
030404 941  0.3-  0.0     030407 474  0.2+  0.5+    030501 E14  0.4-  0.4-
030404 941  0.2-  0.0     030407 474  0.1+  0.3+    030501 E14  0.3-  0.3-
030404 118  0.0   0.1+    030407 151  0.8+  0.5+    030501 E14  1.1+  0.0
030404 941  0.3-  0.1-    030407 151  0.0   0.3-    030502 704  1.2-  0.0
030404 118  0.2-  0.1+    030407 151  0.1-  0.1+    030502 704  0.4-  0.1+
030404 938  0.4+  0.4+    030407 151  0.5+  0.0     030502 704  0.4-  0.0
030404 938  0.5+  0.9-    030407 151  0.3+  0.3+    030502 704  0.4-  0.1+
030404 938  0.2-  0.2+    030407 151  0.1+  0.1+    030502 704  0.5-  0.0
030404 938  1.0+  0.1-    030407 151  0.3+  0.6+    030503 170  0.8-  0.7+
030404 938  0.3+  0.3+    030407 151  0.2+  0.0     030503 170  0.7-  0.6+
030404 938  0.1-  0.0     030407 151  0.3+  0.3+    030503 170  0.8-  0.6+
030404 170  0.1-  0.2-    030407 151  0.1+  0.1+    030503 938  0.3-  0.5-
030404 938  1.5-  0.2-    030408 204  0.6-  0.0     030503 938  0.3-  0.1-
030404 170  0.2+  0.0     030408 204  0.2-  0.0     030503 941  0.2-  0.1+
030404 938  0.0   0.2-    030408 204  0.2-  0.2-    030503 941  0.3-  0.4-
030404 170  1.1+  0.5-    030408 204  0.8-  0.3+    030503 941  0.3-  0.4-
030404 938  0.1-  0.2-    030408 204  0.1+  0.1-    030503 941  0.1-  0.3-
030405 711  0.0   0.3-    030408 204  0.2-  0.9+    030503 938  0.1-  0.0
030405 711  0.1+  0.1-    030408 204  0.1-  0.6-    030503 938  0.2-  0.1+
030405 711  0.1+  0.2-    030408 204  0.3+  0.1+    030503 938  0.2-  0.2+
030405 333  0.2+  0.1+    030408 J95  0.2-  0.3-    030504 552  0.0   0.0
030405 333  0.2-  0.1+    030409 J95  0.7+  0.0     030504 552  0.9-  0.1+
030405 333  0.1-  0.0     030409 704  0.2+  0.3+    030504 552  0.1-  1.0+
030405 333  0.0   0.0     030409 704  0.0   0.5+    030504 552  0.1-  0.2-
030405 333  0.0   0.2-    030409 704  0.3+  0.2+    030504 552  0.4-  0.1-
030405 926  0.2-  0.4-    030409 704  0.5+  0.1+    030504 552  0.2-  0.7+
030405 333  0.1+  0.3-    030409 704  0.2+  0.6+    030504 552  0.2-  0.6+
030405 333  0.1-  0.1-    030409 704  0.2-  0.3+    030504 552  0.1+  0.0
030405 333  0.2-  0.3-    030409 704  0.1+  0.1-    030504 552  0.5+  0.3-
030405 333  0.1-  0.0     030409 704  0.2-  0.1-    030505 118  0.1-  0.1+
030405 333  0.1-  0.2+    030409 704  0.3+  0.7+    030505 118  0.2-  0.2-
030405 926  0.0   0.6-    030409 379  1.1+  0.3+    030505 118  0.6-  0.8-
030405 333  0.0   0.1+    030409 379  0.9-  1.2-    030505 118  0.2-  0.8-
030405 333  0.1-  0.1+    030414 113  0.0   0.3+    030506 118  0.3+  0.5+
030405 926  0.1+  0.2+    030414 113  0.0   0.3+    030506 118  1.4-  1.0+
030405 734  0.4+  0.1-    030414 113  0.0   0.5+    030506 118  1.0-  1.0-
030405 734  0.3-  0.4-    030414 113  0.2+  0.4+    030506 118  0.3+  0.7+
030405 I04  0.7-  0.5-    030414 113  0.3+  0.7+    030506 118  0.8-  0.1-
030405 448  0.0   0.0     030415 413  0.1+  0.4-    030510 941  0.6+  0.2-
030405 I04  0.1-  1.0-    030415 413  0.1-  0.3-    030510 941  0.5+  0.1+
030405 I04  0.2-  0.1-    030415 413  0.1-  0.3-    030510 941  0.4+  0.5+
030405 448  0.1+  0.1+    030415 198  0.9-  0.2-    030510 941  0.3+  0.3+
030405 448  0.1+  0.2+    030415 198  0.8-  0.3+    030517 941  1.7+  0.2+
030405 651  0.3-  0.2+    030415 198  0.2-  0.0     030517 941  1.4+  0.3-
030405 651  1.3-  1.0-    030415 198  0.3+  0.6-    030517 941  1.4+  0.8-
030405 428  0.2-  0.3-    030417 699  0.1-  0.1-    030517 941  0.9+  1.1-
030405 428  0.3-  0.3-    030417 699  0.1-  0.6+    030517 941  0.8+  1.6-
030405 428  0.0   0.3+    030417 699  0.6-  0.2-    030624 448  0.3-  0.0
030405 106  0.3+  0.2+    030417 699  0.3-  0.2-    030624 448  0.2-  0.0
030405 587  0.1+  0.2-    030418 413  0.1+  0.3-    030624 448  0.4+  0.8-
030405 587  0.2+  0.0     030418 413  0.0   0.3-    040330 291  0.9+  0.4+
030405 587  0.1-  0.1-    030418 413  0.3-  0.3-    040330 291  0.0   0.2-
030405 587  0.1+  0.5+    030418 151  0.3+  0.1-    040330 474  0.1-  0.2-
030405 106  0.0   0.1+    030418 151  0.2-  0.0     040330 474  0.9-  0.9-
030405 106  0.1-  0.2-    030418 151  0.5+  0.5+    040330 474  0.1-  0.1+
030405 176  0.0   0.1+    030418 151  0.4+  0.5+    040330 474  0.2+  0.5+
030405 176  0.0   0.1+    030421 E14  0.6-  0.1-    040330 474  0.1-  0.3-
030405 176  0.0   0.2+    030421 E14  0.6+  0.4+

Ephemeris:
2003 GS                  a,e,i = 0.89, 0.22, 12                  q = 0.6978
Date    TT    R. A. (2000) Decl.     Delta      r     Elong.  Phase     V
2004 03 26    19 23.92   -13 10.5    0.688    1.057    75.1    65.8    20.6
2004 04 05    20 05.58   -08 42.7    0.657    1.036    74.1    68.3    20.6
2004 04 15    20 48.74   -03 36.0    0.634    1.010    72.2    71.1    20.5
2004 04 25    21 33.68   +01 56.1    0.622    0.980    69.5    74.1    20.5
2004 05 05    22 20.70   +07 33.1    0.621    0.945    66.0    77.1    20.5
2004 05 15    23 10.05   +12 51.8    0.634    0.908    62.1    79.8    20.6

Timothy B. Spahr             (C) Copyright 2004 MPC           M.P.E.C. 2004-G04

Read MPEC 2004-G03 Read MPEC 2004-G05


Our Web policy. Index to the CBAT/MPC/ICQ pages.


Valid HTML 4.01!